[[{"header":{"parameterUnit":"m.s-1","parameterCategory":1,"la1":30.2992,"la2":30.254,"lo1":-89.0895,"lo2":-89.0443,"dy":0.0025,"dx":0.0025,"nx":19,"ny":19,"refTime":"2026-05-11T21:00:00:Z","depth":0,"parameterNumber":2,"parameterNumberName":"U-component_of_WINDS"},"data":[0,0,0,-4.1109,-4.1115,-4.1384,-4.1384,-4.1756,-4.1759,0,0,0,0,0,0,0,0,0,0,0,-4.1044,-4.1047,-4.1109,-4.1116,-4.1383,-4.1384,-4.1755,-4.1759,0,0,0,0,0,0,0,0,0,0,0,-4.1043,-4.1046,-4.105,-4.1117,-4.1383,-4.1385,-4.1754,-4.1543,0,0,0,0,0,0,0,0,0,0,-4.1278,-4.1231,-4.1046,-4.105,-4.1119,-4.1383,-4.1385,-4.1532,-4.1556,-4.1646,0,-4.1727,0,-4.1749,-4.1786,-4.1787,0,0,0,-4.1106,-4.1211,-4.127,-4.1051,-4.1121,-4.1383,-4.126,-4.1545,-4.1572,-4.1677,-4.1732,-4.1745,-4.1755,-4.1788,-4.179,-4.2336,-4.2339,0,0,-4.1091,-4.1101,-4.1252,-4.1288,-4.1246,-4.1251,-4.1268,-4.1561,-4.1622,-4.1733,-4.1753,-4.1761,-4.1791,-4.1794,-4.2333,-4.2337,0,0,0,-4.1055,-4.1091,-4.1142,-4.1274,-4.132,-4.1259,-4.1279,-4.1609,-4.1625,-4.1757,-4.1766,-4.1793,-4.1798,-4.233,-4.2335,-4.2495,0,0,0,-4.1046,-4.107,-4.1136,-4.1145,-4.1315,-4.1467,-4.1321,-4.1604,-4.1637,-4.1764,-4.1793,-4.1802,-4.2327,-4.2333,-4.2483,-4.257,0,0,0,-4.1022,-4.1067,-4.111,-4.1145,-4.126,-4.1462,-4.1494,-4.1611,-4.1643,-4.1787,-4.1803,-4.2324,-4.2331,-4.2473,-4.2553,-4.2719,0,0,0,-4.1,-4.1249,-4.1113,-4.1395,-4.1258,-4.1557,-4.1492,-4.1715,-4.1858,-4.1795,-4.2327,-4.2334,-4.247,-4.2543,-4.2708,-4.2863,-4.2927,0,0,-4.132,-4.1288,-4.1453,-4.1339,-4.1665,-4.1516,-4.1866,-4.1988,-4.1994,-4.2223,-4.2236,-4.2487,-4.2552,-4.2717,-4.3278,-4.3329,0,0,0,-4.1558,-4.1677,-4.1761,-4.1896,-4.1994,-4.2086,-4.2152,-4.2198,-4.2391,-4.2112,-4.259,-4.2628,-4.2725,-4.2798,-4.2842,-4.2926,-4.2368,-4.2367,-4.2366,-4.2028,-4.2019,-4.2293,-4.2318,-4.245,-4.2516,-4.2624,-4.2697,-4.265,-4.2763,-4.2833,-4.3174,-4.326,-4.3293,-4.3381,-4.291,-4.2911,-4.2912,-4.2912,-4.2499,-4.2668,-4.2599,-4.284,-4.2831,-4.3034,-4.3108,-4.3069,-4.3259,-4.3121,-4.3205,-4.3058,-4.3349,-4.3426,-4.2924,-4.2922,-4.2921,-4.2919,-4.2919,-4.2808,-4.2888,-4.2937,-4.3133,-4.3285,-4.3301,-4.3487,-4.3472,-4.3459,-4.3542,-4.3616,-4.3613,-4.3612,-4.3577,-4.3579,-4.358,-4.3581,-4.3582,-4.3583,-4.3112,-4.3162,-4.3319,-4.3444,-4.3529,-4.364,-4.3709,-4.3795,-4.3885,-4.386,-4.386,-4.3806,-4.3377,-4.3272,-4.3601,-4.3598,-4.3595,-4.3594,-4.3592,-4.3599,-4.3486,-4.3729,-4.3815,-4.3961,-4.4115,-4.4092,-4.4267,-4.4334,-4.4428,-4.4354,-4.4038,-4.4006,-4.3971,-4.3884,-4.4352,-4.4352,-4.4352,-4.4352,-4.3863,-4.3843,-4.4089,-4.4228,-4.4362,-4.4366,-4.4645,-4.4702,-4.4744,-4.4786,-4.4715,-4.4597,-4.4562,-4.4551,-4.4504,-4.4423,-4.5017,-4.5018,-4.5018,-4.4164,-4.4156,-4.4396,-4.4432,-4.4546,-4.4645,-4.4908,-4.5073,-4.5096,-4.5045,-4.482,-4.4792,-4.4601,-4.4539,-4.4487,-4.4414,-4.4265,0,0]},{"header":{"parameterUnit":"m.s-1","parameterCategory":1,"la1":30.2992,"la2":30.254,"lo1":-89.0895,"lo2":-89.0443,"dy":0.0025,"dx":0.0025,"nx":19,"ny":19,"refTime":"2026-05-11T21:00:00:Z","depth":0,"parameterNumber":3,"parameterNumberName":"V-component_of_WINDS"},"data":[0,0,0,1.7402,1.7401,1.7328,1.7328,1.7241,1.724,0,0,0,0,0,0,0,0,0,0,0,1.7432,1.7431,1.7402,1.7401,1.7328,1.7328,1.7241,1.724,0,0,0,0,0,0,0,0,0,0,0,1.7432,1.7432,1.7431,1.7401,1.7328,1.7328,1.7241,1.7293,0,0,0,0,0,0,0,0,0,0,1.7362,1.7398,1.7432,1.7431,1.74,1.7328,1.7328,1.7295,1.729,1.7278,0,1.7274,0,1.7256,1.7235,1.7235,0,0,0,1.7394,1.7403,1.7377,1.7431,1.74,1.7328,1.7359,1.7292,1.7286,1.7271,1.7272,1.7269,1.7255,1.7235,1.7235,1.7201,1.7201,0,0,1.7398,1.7422,1.7381,1.7373,1.7389,1.7361,1.7357,1.7288,1.7289,1.7272,1.7266,1.7253,1.7234,1.7234,1.7201,1.7201,0,0,0,1.7414,1.7425,1.74,1.7377,1.7364,1.7359,1.7354,1.7292,1.7283,1.7265,1.7252,1.7234,1.7233,1.7201,1.7201,1.7234,0,0,0,1.7416,1.7434,1.7402,1.7416,1.7365,1.7328,1.736,1.7287,1.7279,1.7253,1.7234,1.7232,1.72,1.7201,1.7233,1.7244,0,0,0,1.7434,1.7436,1.7429,1.7417,1.7388,1.7328,1.7314,1.7285,1.7271,1.7235,1.7232,1.72,1.7201,1.7231,1.7242,1.7242,0,0,0,1.7458,1.7457,1.743,1.7424,1.7389,1.7351,1.7315,1.7285,1.7258,1.7234,1.72,1.7201,1.7231,1.7241,1.7241,1.7246,1.7251,0,0,1.747,1.746,1.7454,1.7427,1.7402,1.736,1.7338,1.7288,1.7261,1.7222,1.722,1.7233,1.7242,1.7242,1.7273,1.7277,0,0,0,1.7466,1.7462,1.745,1.7428,1.7393,1.7363,1.7316,1.7297,1.7264,1.7247,1.7233,1.7238,1.7237,1.7237,1.7241,1.7238,1.7203,1.7203,1.7203,1.7515,1.7484,1.7472,1.7433,1.7411,1.7364,1.7342,1.7308,1.728,1.7278,1.7265,1.7288,1.729,1.7292,1.729,1.7266,1.7266,1.7266,1.7266,1.7529,1.7518,1.7484,1.7461,1.7427,1.7405,1.7359,1.734,1.7312,1.7294,1.7291,1.7273,1.7298,1.7294,1.7269,1.7268,1.7268,1.7268,1.7268,1.7556,1.7546,1.7527,1.7492,1.7468,1.7427,1.7404,1.7372,1.7342,1.734,1.7322,1.7322,1.7316,1.7334,1.7334,1.7334,1.7335,1.7335,1.7335,1.7592,1.757,1.7556,1.7521,1.7503,1.7475,1.7428,1.7408,1.7377,1.7356,1.7355,1.7327,1.7308,1.7303,1.7336,1.7335,1.7335,1.7335,1.7335,1.7615,1.7605,1.7584,1.7567,1.7522,1.75,1.7463,1.7425,1.7404,1.7393,1.7365,1.7357,1.7342,1.7339,1.7335,1.7374,1.7374,1.7374,1.7374,1.7637,1.7628,1.76,1.7574,1.7544,1.7509,1.7482,1.7446,1.7405,1.739,1.738,1.7372,1.737,1.7356,1.7353,1.7348,1.7389,1.7389,1.7389,1.7648,1.7636,1.7621,1.7586,1.7549,1.7518,1.7492,1.746,1.7412,1.7389,1.7376,1.7376,1.7362,1.736,1.7335,1.733,1.7321,0,0]}]]